PE1RXF-13 Weather Reports


Display with metric or nautical units.
time (UTC)temp
F
wind
direction
speed
MPH
gust
MPH
rain 1hr
in
rain 24hr
in
rain mn
in
humidity
%
barometer
mb
20260506141412 57 90 1.0 4.0 0.00 0.00 0.00 56 1009.0
20260506131411 57 225 6.0 19.0 0.00 0.00 0.00 50 1009.0
20260506124411 56 0 3.0 20.0 0.00 0.00 0.00 48 1008.9
20260506121411 56 45 3.0 14.0 0.00 0.00 0.00 54 1008.8
20260506114411 55 135 3.0 13.0 0.00 0.00 0.00 50 1008.8
20260506111412 54 225 3.0 11.0 0.00 0.00 0.00 50 1008.7
20260506104412 55 315 4.0 13.0 0.00 0.00 0.00 51 1008.6
20260506094412 52 180 2.0 10.0 0.00 0.00 0.00 61 1008.5
20260506091412 51 45 1.0 4.0 0.00 0.00 0.00 72 1008.4
20260506084412 51 247 1.0 4.0 0.00 0.00 0.00 79 1008.2
20260506081413 50 225 2.0 10.0 0.00 0.00 0.00 84 1008.1
20260506071412 50 45 1.0 4.0 0.00 0.00 0.00 99 1007.9
20260506051412 48 45 1.0 4.0 0.00 0.00 0.00 99 1007.7
20260506044412 48 225 0.0 3.0 0.00 0.00 0.00 97 1007.6
20260506041412 48 225 2.0 7.0 0.00 0.00 0.00 97 1007.6
20260506034412 48 45 0.0 3.0 0.00 0.00 0.00 99 1007.7
20260506031412 48 315 1.0 2.0 0.00 0.00 0.00 99 1007.8
20260506024412 48 45 1.0 3.0 0.00 0.00 0.00 99 1008.0
20260506021412 48 315 1.0 3.0 0.00 0.00 0.00 99 1008.1
20260506014412 48 0 1.0 4.0 0.00 0.00 0.00 99 1008.3
20260506011412 48 0 1.0 2.0 0.00 0.00 0.00 99 1008.4
20260506004412 49 315 1.0 4.0 0.00 0.00 0.00 99 1008.6
20260506001413 49 0 1.0 6.0 0.00 0.00 0.00 99 1008.8
20260505234413 49 45 1.0 4.0 0.00 0.00 0.00 99 1009.2
20260505231412 49 315 1.0 4.0 0.00 0.00 0.00 99 1009.1
20260505224413 49 90 1.0 4.0 0.00 0.00 0.00 99 1009.3
20260505221412 48 315 1.0 4.0 0.00 0.00 0.00 99 1009.5
20260505214412 49 45 1.0 4.0 0.00 0.00 0.00 99 1009.8
20260505211412 49 315 1.0 4.0 0.00 0.00 0.00 99 1009.8
20260505204413 49 270 0.0 3.0 0.00 0.00 0.00 99 1010.0
20260505201413 49 315 1.0 6.0 0.00 0.00 0.00 99 1009.9
20260505194412 49 45 1.0 4.0 0.00 0.00 0.00 99 1009.9
20260505191413 49 0 2.0 8.0 0.00 0.00 0.00 99 1009.8
20260505164413 53 315 3.0 10.0 0.00 0.00 0.00 93 1009.8
20260505161412 54 45 2.0 8.0 0.00 0.00 0.00 84 1009.8
20260505151414 55 45 2.0 6.0 0.00 0.00 0.00 79 1010.0